Weather History for Sault Ste Marie, MI

Change the Weather History Date:

Tuesday, November 11, 2014

  Actual Average Record
Temperature  
Mean Temperature 27 °F 36 °F  
Max Temperature 30 °F 42 °F 64 °F (2012)
Min Temperature 23 °F 30 °F 10 °F (1985)
Degree Days  
Heating Degree Days 38 29  
Month to date heating degree days 334 299  
Since 1 July heating degree days 1372 1304  
Moisture  
Dew Point 24 °F    
Average Humidity 83    
Maximum Humidity 92    
Minimum Humidity 74    
Precipitation  
Precipitation 0.39 in 0.11 in 1.34 in (1911)
Month to date precipitation 1.44 1.22  
Year to date precipitation 31.95 28.01  
Snow  
Snow 2.00 in 0.40 in 5.20 in (1976)
Month to date snowfall 6.9 3.5  
Since 1 July snowfall 6.9 5.1  
Snow Depth 3.00 in    
Sea Level Pressure  
Sea Level Pressure 29.72 in    
Wind  
Wind Speed 11 mph (NE)    
Max Wind Speed 17 mph    
Max Gust Speed 27 mph    
Visibility 5 miles    
Events Fog , Rain , Snow    
T = Trace of Precipitation, MM = Missing Value Source: NWS Daily Summary

Daily Weather History Graph

Daily Weather History Graph

Search for Another Location

Airport:

Trip Planner

Search our weather history database for the weather conditions in past years. The results will help you decide how hot, cold, wet, or windy it might be!

Date:

Astronomy

Nov. 11, 2014 Rise Set
Actual Time 7:33 AM EST 5:08 PM EST
Civil Twilight 7:01 AM EST 5:41 PM EST
Nautical Twilight 6:24 AM EST 6:17 PM EST
Astronomical Twilight 5:49 AM EST 6:52 PM EST
Moon 9:31 PM EST (11/11) 11:40 AM EST (11/11)
Length of Visible Light 10h 40m
Length of Day
9h 35m
Waning Gibbous, 77% of the Moon is Illuminated
Nov 11
Waning Gibbous
Nov 14
Last Quarter
Nov 22
New
Nov 29
First Quarter
Dec 6
Full

Hourly Weather History & Observations

Time (EST) Temp. Windchill Dew Point Humidity Pressure Visibility Wind Dir Wind Speed Gust Speed Precip Events Conditions
12:17 AM 30.0 °F 19.5 °F 26.1 °F 85% 29.79 in 5.0 mi ENE 13.8 mph 23.0 mph 0.00 in Rain Light Freezing Rain
12:34 AM 30.0 °F 19.5 °F 26.1 °F 85% 29.79 in 6.0 mi ENE 13.8 mph 24.2 mph 0.00 in   Overcast
12:55 AM 30.0 °F 21.1 °F 26.1 °F 85% 29.81 in 5.0 mi ENE 10.4 mph 25.3 mph 0.00 in   Overcast
1:04 AM 30.0 °F 19.5 °F 26.1 °F 85% 29.78 in 4.0 mi ENE 13.8 mph 23.0 mph 0.00 in Rain Light Freezing Rain
1:21 AM 30.0 °F 19.1 °F 26.1 °F 85% 29.77 in 4.0 mi ENE 15.0 mph 26.5 mph 0.00 in   Overcast
1:55 AM 30.0 °F 19.1 °F 26.1 °F 85% 29.78 in 7.0 mi ENE 15.0 mph 21.9 mph 0.00 in   Overcast
2:53 AM 30.2 °F 20.2 °F 24.8 °F 80% 29.76 in 10.0 mi ENE 12.7 mph 24.2 mph 0.00 in   Overcast
2:55 AM 30.0 °F 19.5 °F 25.0 °F 82% 29.79 in 10.0 mi ENE 13.8 mph 24.2 mph 0.00 in   Overcast
3:19 AM 30.0 °F 20.5 °F 25.0 °F 82% 29.76 in 10.0 mi ENE 11.5 mph 23.0 mph 0.00 in Rain Light Freezing Rain
3:50 AM 30.2 °F 20.2 °F 24.8 °F 80% 29.76 in 10.0 mi ENE 12.7 mph 21.9 mph 0.01 in   Overcast
3:55 AM 30.0 °F 20.0 °F 25.0 °F 82% 29.78 in 10.0 mi ENE 12.7 mph 21.9 mph 0.01 in   Overcast
4:55 AM 30.0 °F 21.1 °F 25.0 °F 82% 29.78 in 10.0 mi ENE 10.4 mph 23.0 mph 0.00 in   Overcast
5:55 AM 28.9 °F 19.2 °F 24.1 °F 82% 29.79 in 5.0 mi NE 11.5 mph 21.9 mph 0.00 in Rain Light Freezing Rain
6:22 AM 28.9 °F 17.3 °F 25.0 °F 85% 29.78 in 3.0 mi ENE 16.1 mph 24.2 mph 0.01 in Rain Light Freezing Rain
6:55 AM 28.9 °F 18.2 °F 26.1 °F 89% 29.79 in 5.0 mi ENE 13.8 mph 19.6 mph 0.01 in Rain Light Freezing Rain
7:40 AM 28.9 °F 19.2 °F 25.0 °F 85% 29.75 in 7.0 mi ENE 11.5 mph 26.5 mph 0.01 in Rain Light Freezing Rain
7:55 AM 28.9 °F 16.9 °F 25.0 °F 85% 29.78 in 9.0 mi ENE 17.3 mph 25.3 mph 0.01 in Rain Light Freezing Rain
8:03 AM 28.9 °F 17.7 °F 24.1 °F 82% 29.76 in 10.0 mi ENE 15.0 mph 25.3 mph 0.00 in   Overcast
8:11 AM 28.9 °F 17.7 °F 24.1 °F 82% 29.75 in 9.0 mi ENE 15.0 mph 25.3 mph 0.00 in   Overcast
8:17 AM 28.9 °F 18.2 °F 24.1 °F 82% 29.75 in 7.0 mi ENE 13.8 mph 21.9 mph 0.00 in Rain Light Freezing Rain
8:46 AM 28.9 °F 16.5 °F 24.1 °F 82% 29.73 in 4.0 mi ENE 18.4 mph 28.8 mph 0.00 in Rain Light Freezing Rain
8:55 AM 28.9 °F 19.2 °F 25.0 °F 85% 29.76 in 4.0 mi ENE 11.5 mph 25.3 mph 0.00 in Rain Light Freezing Rain
9:21 AM 28.9 °F 18.2 °F 25.0 °F 85% 29.73 in 2.5 mi ENE 13.8 mph 28.8 mph 0.00 in Rain Light Freezing Rain
9:37 AM 28.9 °F 17.7 °F 25.0 °F 85% 29.71 in 4.0 mi ENE 15.0 mph 23.0 mph 0.01 in Rain Light Freezing Rain
9:55 AM 28.9 °F 17.7 °F 25.0 °F 85% 29.74 in 4.0 mi ENE 15.0 mph 24.2 mph 0.01 in Rain Light Freezing Rain
10:04 AM 28.9 °F 19.8 °F 26.1 °F 89% 29.72 in 2.5 mi ENE 10.4 mph 23.0 mph 0.02 in Rain Light Freezing Rain
10:12 AM 28.9 °F 18.6 °F 25.0 °F 85% 29.73 in 2.5 mi ENE 12.7 mph 21.9 mph 0.03 in Rain Light Freezing Rain
10:21 AM 28.9 °F 18.6 °F 25.0 °F 85% 29.73 in 5.0 mi ENE 12.7 mph 20.7 mph 0.03 in Rain Light Freezing Rain
10:29 AM 28.9 °F 18.6 °F 25.0 °F 85% 29.72 in 9.0 mi ENE 12.7 mph 19.6 mph 0.04 in Rain Light Freezing Rain
10:55 AM 28.9 °F 19.8 °F 25.0 °F 85% 29.72 in 5.0 mi ENE 10.4 mph 20.7 mph 0.04 in Rain Light Freezing Rain
11:12 AM 28.9 °F 18.2 °F 25.0 °F 85% 29.70 in 10.0 mi ENE 13.8 mph 25.3 mph 0.01 in Rain Light Freezing Rain
11:21 AM 28.9 °F 18.2 °F 25.0 °F 85% 29.70 in 10.0 mi ENE 13.8 mph 23.0 mph 0.01 in   Overcast
11:49 AM 28.4 °F 18.5 °F 24.8 °F 86% 29.71 in 6.0 mi ENE 11.5 mph - 0.01 in Rain Light Freezing Rain
11:55 AM 28.9 °F 19.8 °F 25.0 °F 85% 29.73 in 4.0 mi ENE 10.4 mph 23.0 mph 0.02 in Rain Light Freezing Rain
12:08 PM 28.9 °F 19.2 °F 25.0 °F 85% 29.71 in 3.0 mi ENE 11.5 mph 21.9 mph 0.02 in Rain Light Freezing Rain
12:13 PM 28.9 °F 19.8 °F 25.0 °F 85% 29.70 in 2.5 mi ENE 10.4 mph - 0.02 in Rain Light Freezing Rain
12:22 PM 28.9 °F 18.6 °F 25.0 °F 85% 29.69 in 5.0 mi ENE 12.7 mph 21.9 mph 0.03 in Rain Light Freezing Rain
12:38 PM 28.9 °F 18.2 °F 25.0 °F 85% 29.67 in 4.0 mi ENE 13.8 mph 23.0 mph 0.03 in Rain Light Freezing Rain
12:55 PM 28.9 °F 17.7 °F 25.0 °F 85% 29.68 in 5.0 mi ENE 15.0 mph 26.5 mph 0.04 in Rain Light Freezing Rain
1:20 PM 28.9 °F 17.7 °F 24.1 °F 82% 29.67 in 10.0 mi ENE 15.0 mph 24.2 mph 0.00 in   Overcast
1:55 PM 28.9 °F 19.8 °F 25.0 °F 85% 29.67 in 10.0 mi NE 10.4 mph - 0.00 in   Overcast
2:09 PM 28.9 °F 21.1 °F 24.1 °F 82% 29.65 in 10.0 mi NE 8.1 mph 18.4 mph 0.00 in Rain Light Freezing Rain
2:51 PM 28.4 °F 19.1 °F 24.8 °F 86% 29.65 in 4.0 mi NE 10.4 mph - 0.01 in Rain Light Freezing Rain
2:55 PM 28.9 °F 20.4 °F 24.1 °F 82% 29.67 in 4.0 mi NE 9.2 mph 17.3 mph 0.02 in Rain Light Freezing Rain
3:04 PM 28.9 °F 19.8 °F 24.1 °F 82% 29.65 in 5.0 mi NE 10.4 mph 17.3 mph 0.01 in Rain Light Freezing Rain
3:16 PM 28.9 °F 22.8 °F 25.0 °F 85% 29.65 in 4.0 mi Variable 5.8 mph 19.6 mph 0.02 in Rain Light Freezing Rain
3:25 PM 28.9 °F 21.9 °F 24.1 °F 82% 29.65 in 4.0 mi NE 6.9 mph 18.4 mph 0.04 in Snow Light Snow
3:55 PM 28.0 °F 18.6 °F 24.1 °F 85% 29.68 in 2.0 mi NE 10.4 mph 17.3 mph 0.05 in Snow Light Snow
4:03 PM 28.0 °F 18.1 °F 24.1 °F 85% 29.65 in 1.2 mi NE 11.5 mph 18.4 mph 0.01 in Snow Light Snow
4:17 PM 28.0 °F 19.3 °F 24.1 °F 85% 29.64 in 0.8 mi NE 9.2 mph 18.4 mph 0.03 in Snow Light Snow
4:43 PM 27.0 °F 18.7 °F 24.1 °F 89% 29.64 in 0.5 mi NE 8.1 mph 18.4 mph 0.05 in Fog , Snow Snow
4:55 PM 27.0 °F 16.7 °F 24.1 °F 89% 29.66 in 0.5 mi NNE 11.5 mph 17.3 mph 0.06 in Fog , Snow Snow
5:06 PM 27.0 °F 19.5 °F 24.1 °F 89% 29.64 in 0.8 mi Variable 6.9 mph - 0.02 in Snow Light Snow
5:13 PM 27.0 °F 17.3 °F 24.1 °F 89% 29.64 in 1.5 mi NE 10.4 mph - 0.02 in Snow Light Snow
5:37 PM 27.0 °F 20.5 °F 23.0 °F 85% 29.64 in 2.5 mi NNE 5.8 mph - 0.04 in Snow Light Snow
5:55 PM 27.0 °F 19.5 °F 23.0 °F 85% 29.69 in 1.8 mi North 6.9 mph - 0.06 in Snow Light Snow
6:13 PM 27.0 °F 18.7 °F 23.0 °F 85% 29.67 in 2.0 mi North 8.1 mph - 0.03 in Snow Light Snow
6:45 PM 26.1 °F 18.4 °F 21.9 °F 84% 29.68 in 1.8 mi North 6.9 mph - 0.05 in Snow Light Snow
6:55 PM 26.1 °F 17.6 °F 21.9 °F 84% 29.71 in 1.8 mi North 8.1 mph - 0.05 in Snow Light Snow
7:12 PM 26.1 °F 17.6 °F 21.9 °F 84% 29.69 in 2.5 mi North 8.1 mph - 0.00 in Snow Light Snow
7:28 PM 25.0 °F 17.1 °F 21.9 °F 88% 29.69 in 1.5 mi North 6.9 mph - 0.01 in Snow Light Snow
7:55 PM 25.0 °F 15.5 °F 21.0 °F 85% 29.70 in 2.0 mi NNE 9.2 mph 20.7 mph 0.01 in Snow Light Snow
8:16 PM 25.0 °F 15.5 °F 19.9 °F 81% 29.67 in 4.0 mi NE 9.2 mph 17.3 mph 0.00 in Snow Light Snow
8:55 PM 25.0 °F 17.1 °F 19.0 °F 78% 29.71 in 10.0 mi North 6.9 mph - 0.00 in   Overcast
9:10 PM 25.0 °F 17.1 °F 19.0 °F 78% 29.68 in 10.0 mi North 6.9 mph - N/A   Overcast
9:55 PM 24.1 °F 18.2 °F 18.0 °F 77% 29.73 in 10.0 mi North 4.6 mph - N/A   Overcast
10:55 PM 24.1 °F 18.2 °F 17.1 °F 75% 29.74 in 10.0 mi Variable 4.6 mph - N/A   Overcast
11:55 PM 23.0 °F 15.8 °F 16.0 °F 74% 29.76 in 10.0 mi North 5.8 mph 17.3 mph N/A   Overcast